Time,TemperatureF,DewpointF,PressureIn,WindDirection,WindDirectionDegrees,WindSpeedMPH,WindSpeedGustMPH,Humidity,HourlyPrecipIn,Conditions,Clouds,dailyrainin,SoftwareType,DateUTC
2013-02-15 00:02:00,33.0,20.0,-100.00,NW,310,1.0,4.0,58,-99.99,,,-99.99,,2013-02-15 05:02:00,
2013-02-15 00:12:00,32.0,19.0,-100.00,SW,225,0.0,4.0,58,-99.99,,,-99.99,,2013-02-15 05:12:00,
2013-02-15 00:22:00,32.0,19.0,-100.00,SW,225,0.0,4.0,58,-99.99,,,-99.99,,2013-02-15 05:22:00,
2013-02-15 00:32:00,33.0,20.0,-100.00,SW,215,2.0,6.0,58,-99.99,,,-99.99,,2013-02-15 05:32:00,
2013-02-15 00:42:00,33.0,20.0,-100.00,WNW,295,1.0,6.0,58,-99.99,,,-99.99,,2013-02-15 05:42:00,
2013-02-15 00:52:00,33.0,20.0,-100.00,WNW,295,1.0,6.0,58,-99.99,,,-99.99,,2013-02-15 05:52:00,
2013-02-15 01:02:00,35.0,21.0,-100.00,West,275,3.0,8.0,56,-99.99,,,-99.99,,2013-02-15 06:02:00,
2013-02-15 01:11:00,35.0,20.0,-100.00,WSW,240,3.0,9.0,55,-99.99,,,-99.99,,2013-02-15 06:11:00,
2013-02-15 01:22:00,35.0,20.0,-100.00,WSW,240,3.0,9.0,55,-99.99,,,-99.99,,2013-02-15 06:22:00,
2013-02-15 01:32:00,35.0,20.0,-100.00,SW,225,5.0,7.0,54,-99.99,,,-99.99,,2013-02-15 06:32:00,
2013-02-15 01:42:00,35.0,20.0,-100.00,SW,225,4.0,7.0,53,-99.99,,,-99.99,,2013-02-15 06:42:00,
2013-02-15 01:52:00,35.0,20.0,-100.00,SW,225,4.0,7.0,53,-99.99,,,-99.99,,2013-02-15 06:52:00,
2013-02-15 02:01:00,36.0,20.0,-100.00,WNW,300,1.0,10.0,52,-99.99,,,-99.99,,2013-02-15 07:01:00,
2013-02-15 02:11:00,35.0,19.0,-100.00,SSW,210,2.0,5.0,52,-99.99,,,-99.99,,2013-02-15 07:11:00,
2013-02-15 02:21:00,35.0,19.0,-100.00,SSW,210,2.0,5.0,52,-99.99,,,-99.99,,2013-02-15 07:21:00,
2013-02-15 02:32:00,35.0,19.0,-100.00,WSW,240,2.0,7.0,52,-99.99,,,-99.99,,2013-02-15 07:32:00,
2013-02-15 02:42:00,34.0,19.0,-100.00,NW,310,3.0,7.0,54,-99.99,,,-99.99,,2013-02-15 07:42:00,
2013-02-15 02:52:00,34.0,19.0,-100.00,NW,310,3.0,7.0,54,-99.99,,,-99.99,,2013-02-15 07:52:00,
2013-02-15 03:00:00,35.0,22.0,-100.00,WNW,290,4.0,10.0,60,-99.99,,,-99.99,,2013-02-15 08:00:00,
2013-02-15 03:01:00,34.0,20.0,-100.00,WNW,300,1.0,6.0,57,-99.99,,,-99.99,,2013-02-15 08:01:00,
2013-02-15 03:11:00,33.0,20.0,-100.00,SSW,210,2.0,8.0,59,-99.99,,,-99.99,,2013-02-15 08:11:00,
2013-02-15 03:21:00,33.0,20.0,-100.00,SSW,210,2.0,8.0,59,-99.99,,,-99.99,,2013-02-15 08:21:00,
2013-02-15 03:32:00,34.0,21.0,-100.00,WSW,245,4.0,11.0,60,-99.99,,,-99.99,,2013-02-15 08:32:00,
2013-02-15 03:42:00,35.0,22.0,-100.00,WNW,290,4.0,10.0,60,-99.99,,,-99.99,,2013-02-15 08:42:00,
2013-02-15 03:53:00,35.0,22.0,-100.00,WNW,290,4.0,10.0,60,-99.99,,,-99.99,,2013-02-15 08:53:00,
2013-02-15 04:12:00,34.0,23.0,-100.00,WSW,250,4.0,10.0,62,-99.99,,,-99.99,,2013-02-15 09:12:00,
2013-02-15 04:22:00,34.0,23.0,-100.00,WSW,250,4.0,10.0,62,-99.99,,,-99.99,,2013-02-15 09:22:00,
2013-02-15 04:32:00,34.0,22.0,-100.00,WSW,245,3.0,11.0,62,-99.99,,,-99.99,,2013-02-15 09:32:00,
2013-02-15 04:42:00,35.0,23.0,-100.00,WSW,255,3.0,10.0,62,-99.99,,,-99.99,,2013-02-15 09:42:00,
2013-02-15 04:52:00,35.0,23.0,-100.00,WSW,255,3.0,10.0,62,-99.99,,,-99.99,,2013-02-15 09:52:00,
2013-02-15 05:01:00,34.0,22.0,-100.00,WSW,250,4.0,9.0,62,-99.99,,,-99.99,,2013-02-15 10:01:00,
2013-02-15 05:11:00,34.0,22.0,-100.00,South,175,2.0,9.0,62,-99.99,,,-99.99,,2013-02-15 10:11:00,
2013-02-15 05:21:00,34.0,22.0,-100.00,South,175,2.0,9.0,62,-99.99,,,-99.99,,2013-02-15 10:21:00,
2013-02-15 05:32:00,34.0,22.0,-100.00,SSE,155,2.0,13.0,62,-99.99,,,-99.99,,2013-02-15 10:32:00,
2013-02-15 05:42:00,34.0,23.0,-100.00,WSW,255,3.0,8.0,63,-99.99,,,-99.99,,2013-02-15 10:42:00,
2013-02-15 05:52:00,34.0,23.0,-100.00,WSW,255,3.0,8.0,63,-99.99,,,-99.99,,2013-02-15 10:52:00,
2013-02-15 06:01:00,34.0,23.0,-100.00,WSW,250,3.0,8.0,64,-99.99,,,-99.99,,2013-02-15 11:01:00,
2013-02-15 06:11:00,34.0,23.0,-100.00,WSW,250,3.0,8.0,66,-99.99,,,-99.99,,2013-02-15 11:11:00,
2013-02-15 06:23:00,34.0,23.0,-100.00,WSW,250,3.0,8.0,66,-99.99,,,-99.99,,2013-02-15 11:23:00,
2013-02-15 06:32:00,33.0,23.0,-100.00,WSW,240,3.0,8.0,67,-99.99,,,-99.99,,2013-02-15 11:32:00,
2013-02-15 06:42:00,32.0,24.0,-100.00,WNW,290,2.0,7.0,70,-99.99,,,-99.99,,2013-02-15 11:42:00,
2013-02-15 06:52:00,32.0,24.0,-100.00,WNW,290,2.0,7.0,70,-99.99,,,-99.99,,2013-02-15 11:52:00,
2013-02-15 07:02:00,31.0,23.0,-100.00,SW,230,2.0,5.0,71,-99.99,,,-99.99,,2013-02-15 12:02:00,
2013-02-15 07:11:00,31.0,23.0,-100.00,WSW,250,1.0,4.0,73,-99.99,,,-99.99,,2013-02-15 12:11:00,
2013-02-15 07:22:00,31.0,23.0,-100.00,WSW,250,1.0,4.0,73,-99.99,,,-99.99,,2013-02-15 12:22:00,
2013-02-15 07:32:00,31.0,24.0,-100.00,WSW,245,3.0,7.0,75,-99.99,,,-99.99,,2013-02-15 12:32:00,
2013-02-15 07:42:00,31.0,25.0,-100.00,WSW,250,2.0,5.0,76,-99.99,,,-99.99,,2013-02-15 12:42:00,
2013-02-15 07:52:00,31.0,25.0,-100.00,WSW,250,2.0,5.0,76,-99.99,,,-99.99,,2013-02-15 12:52:00,
2013-02-15 08:02:00,31.0,25.0,-100.00,West,265,2.0,5.0,77,-99.99,,,-99.99,,2013-02-15 13:02:00,
2013-02-15 08:11:00,32.0,26.0,-100.00,WSW,245,2.0,6.0,78,-99.99,,,-99.99,,2013-02-15 13:11:00,
2013-02-15 08:22:00,32.0,26.0,-100.00,WSW,245,2.0,6.0,78,-99.99,,,-99.99,,2013-02-15 13:22:00,
2013-02-15 08:32:00,33.0,26.0,-100.00,WNW,300,2.0,6.0,78,-99.99,,,-99.99,,2013-02-15 13:32:00,
2013-02-15 08:42:00,34.0,27.0,-100.00,West,265,1.0,5.0,76,-99.99,,,-99.99,,2013-02-15 13:42:00,
2013-02-15 08:52:00,34.0,27.0,-100.00,West,265,1.0,5.0,76,-99.99,,,-99.99,,2013-02-15 13:52:00,
2013-02-15 09:01:00,35.0,27.0,-100.00,WSW,250,3.0,5.0,72,-99.99,,,-99.99,,2013-02-15 14:01:00,
2013-02-15 09:12:00,36.0,27.0,-100.00,West,270,3.0,7.0,69,-99.99,,,-99.99,,2013-02-15 14:12:00,
2013-02-15 09:22:00,36.0,27.0,-100.00,West,270,3.0,7.0,69,-99.99,,,-99.99,,2013-02-15 14:22:00,
2013-02-15 09:32:00,37.0,27.0,-100.00,WSW,245,5.0,8.0,67,-99.99,,,-99.99,,2013-02-15 14:32:00,
2013-02-15 09:42:00,37.0,26.0,-100.00,WSW,250,4.0,8.0,64,-99.99,,,-99.99,,2013-02-15 14:42:00,
2013-02-15 09:52:00,37.0,26.0,-100.00,WSW,250,4.0,8.0,64,-99.99,,,-99.99,,2013-02-15 14:52:00,
2013-02-15 10:02:00,38.0,26.0,-100.00,SW,235,4.0,9.0,63,-99.99,,,-99.99,,2013-02-15 15:02:00,
2013-02-15 10:11:00,39.0,27.0,-100.00,SW,225,4.0,7.0,60,-99.99,,,-99.99,,2013-02-15 15:11:00,
2013-02-15 10:22:00,39.0,27.0,-100.00,SW,225,4.0,7.0,60,-99.99,,,-99.99,,2013-02-15 15:22:00,
2013-02-15 10:32:00,40.0,27.0,-100.00,WSW,250,4.0,9.0,59,-99.99,,,-99.99,,2013-02-15 15:32:00,
2013-02-15 10:42:00,41.0,26.0,-100.00,WNW,285,2.0,7.0,56,-99.99,,,-99.99,,2013-02-15 15:42:00,
2013-02-15 10:52:00,41.0,26.0,-100.00,WNW,285,2.0,7.0,56,-99.99,,,-99.99,,2013-02-15 15:52:00,
2013-02-15 11:02:00,42.0,26.0,-100.00,NW,305,3.0,9.0,53,-99.99,,,-99.99,,2013-02-15 16:02:00,
2013-02-15 11:12:00,43.0,26.0,-100.00,NW,305,5.0,10.0,51,-99.99,,,-99.99,,2013-02-15 16:12:00,
2013-02-15 11:22:00,43.0,26.0,-100.00,NW,305,5.0,10.0,51,-99.99,,,-99.99,,2013-02-15 16:22:00,
2013-02-15 11:32:00,45.0,26.0,-100.00,WSW,245,5.0,13.0,48,-99.99,,,-99.99,,2013-02-15 16:32:00,
2013-02-15 11:42:00,46.0,26.0,-100.00,WSW,240,5.0,11.0,45,-99.99,,,-99.99,,2013-02-15 16:42:00,
2013-02-15 11:52:00,46.0,26.0,-100.00,WSW,240,5.0,11.0,45,-99.99,,,-99.99,,2013-02-15 16:52:00,
2013-02-15 12:01:00,47.0,26.0,-100.00,SW,225,4.0,12.0,43,-99.99,,,-99.99,,2013-02-15 17:01:00,
2013-02-15 12:11:00,47.0,25.0,-100.00,WSW,250,6.0,14.0,41,-99.99,,,-99.99,,2013-02-15 17:11:00,
2013-02-15 12:21:00,47.0,25.0,-100.00,WSW,250,6.0,14.0,41,-99.99,,,-99.99,,2013-02-15 17:21:00,
2013-02-15 12:32:00,47.0,25.0,-100.00,WSW,245,6.0,16.0,41,-99.99,,,-99.99,,2013-02-15 17:32:00,
2013-02-15 12:42:00,48.0,24.0,-100.00,WSW,250,7.0,20.0,39,-99.99,,,-99.99,,2013-02-15 17:42:00,
2013-02-15 12:52:00,48.0,24.0,-100.00,WSW,250,7.0,20.0,39,-99.99,,,-99.99,,2013-02-15 17:52:00,
2013-02-15 13:02:00,48.0,23.0,-100.00,SW,235,14.0,28.0,38,-99.99,,,-99.99,,2013-02-15 18:02:00,
2013-02-15 13:12:00,48.0,24.0,-100.00,WSW,240,6.0,18.0,38,-99.99,,,-99.99,,2013-02-15 18:12:00,
2013-02-15 13:22:00,48.0,24.0,-100.00,WSW,240,6.0,18.0,38,-99.99,,,-99.99,,2013-02-15 18:22:00,
2013-02-15 13:32:00,49.0,24.0,-100.00,West,280,7.0,19.0,37,-99.99,,,-99.99,,2013-02-15 18:32:00,
2013-02-15 13:42:00,49.0,24.0,-100.00,WSW,255,10.0,21.0,37,-99.99,,,-99.99,,2013-02-15 18:42:00,
2013-02-15 13:53:00,49.0,24.0,-100.00,WSW,255,10.0,21.0,37,-99.99,,,-99.99,,2013-02-15 18:53:00,
2013-02-15 14:02:00,49.0,24.0,-100.00,West,280,6.0,17.0,37,-99.99,,,-99.99,,2013-02-15 19:02:00,
2013-02-15 14:11:00,50.0,24.0,-100.00,West,260,8.0,16.0,36,-99.99,,,-99.99,,2013-02-15 19:11:00,
2013-02-15 14:22:00,50.0,24.0,-100.00,West,260,8.0,16.0,36,-99.99,,,-99.99,,2013-02-15 19:22:00,
2013-02-15 14:32:00,49.0,22.0,-100.00,WSW,255,9.0,22.0,34,-99.99,,,-99.99,,2013-02-15 19:32:00,
2013-02-15 14:42:00,50.0,22.0,-100.00,West,265,7.0,17.0,33,-99.99,,,-99.99,,2013-02-15 19:42:00,
2013-02-15 14:52:00,50.0,22.0,-100.00,West,265,7.0,17.0,33,-99.99,,,-99.99,,2013-02-15 19:52:00,
2013-02-15 15:02:00,50.0,22.0,-100.00,West,260,8.0,17.0,33,-99.99,,,-99.99,,2013-02-15 20:02:00,
2013-02-15 15:11:00,50.0,21.0,-100.00,WSW,250,9.0,23.0,32,-99.99,,,-99.99,,2013-02-15 20:11:00,
2013-02-15 15:22:00,50.0,21.0,-100.00,WSW,250,9.0,23.0,32,-99.99,,,-99.99,,2013-02-15 20:22:00,
2013-02-15 15:32:00,50.0,21.0,-100.00,WSW,250,9.0,19.0,32,-99.99,,,-99.99,,2013-02-15 20:32:00,
2013-02-15 15:42:00,50.0,21.0,-100.00,NW,310,4.0,17.0,32,-99.99,,,-99.99,,2013-02-15 20:42:00,
2013-02-15 15:52:00,50.0,21.0,-100.00,NW,310,4.0,17.0,32,-99.99,,,-99.99,,2013-02-15 20:52:00,
2013-02-15 16:02:00,50.0,20.0,-100.00,WSW,250,9.0,15.0,30,-99.99,,,-99.99,,2013-02-15 21:02:00,
2013-02-15 16:11:00,50.0,21.0,-100.00,NW,305,8.0,16.0,31,-99.99,,,-99.99,,2013-02-15 21:11:00,
2013-02-15 16:22:00,50.0,21.0,-100.00,NW,305,8.0,16.0,31,-99.99,,,-99.99,,2013-02-15 21:22:00,
2013-02-15 16:32:00,50.0,20.0,-100.00,WSW,250,8.0,18.0,30,-99.99,,,-99.99,,2013-02-15 21:32:00,
2013-02-15 16:42:00,48.0,19.0,-100.00,NW,305,7.0,13.0,31,-99.99,,,-99.99,,2013-02-15 21:42:00,
2013-02-15 16:52:00,48.0,19.0,-100.00,NW,305,7.0,13.0,31,-99.99,,,-99.99,,2013-02-15 21:52:00,
2013-02-15 17:02:00,48.0,19.0,-100.00,NW,305,4.0,13.0,31,-99.99,,,-99.99,,2013-02-15 22:02:00,
2013-02-15 17:11:00,47.0,19.0,-100.00,WNW,290,5.0,12.0,32,-99.99,,,-99.99,,2013-02-15 22:11:00,
2013-02-15 17:22:00,47.0,19.0,-100.00,WNW,290,5.0,12.0,32,-99.99,,,-99.99,,2013-02-15 22:22:00,
2013-02-15 17:32:00,47.0,20.0,-100.00,West,275,3.0,12.0,33,-99.99,,,-99.99,,2013-02-15 22:32:00,
2013-02-15 17:42:00,47.0,20.0,-100.00,SW,235,6.0,15.0,34,-99.99,,,-99.99,,2013-02-15 22:42:00,
2013-02-15 17:52:00,47.0,20.0,-100.00,SW,235,6.0,15.0,34,-99.99,,,-99.99,,2013-02-15 22:52:00,
2013-02-15 18:02:00,46.0,20.0,-100.00,WNW,290,3.0,7.0,36,-99.99,,,-99.99,,2013-02-15 23:02:00,
2013-02-15 18:11:00,45.0,20.0,-100.00,West,280,2.0,6.0,37,-99.99,,,-99.99,,2013-02-15 23:11:00,
2013-02-15 18:21:00,45.0,20.0,-100.00,West,280,2.0,6.0,37,-99.99,,,-99.99,,2013-02-15 23:21:00,
2013-02-15 18:32:00,45.0,21.0,-100.00,NW,305,2.0,5.0,38,-99.99,,,-99.99,,2013-02-15 23:32:00,
2013-02-15 18:42:00,44.0,21.0,-100.00,West,275,2.0,6.0,40,-99.99,,,-99.99,,2013-02-15 23:42:00,
2013-02-15 18:52:00,44.0,21.0,-100.00,West,275,2.0,6.0,40,-99.99,,,-99.99,,2013-02-15 23:52:00,
2013-02-15 19:02:00,43.0,21.0,-100.00,NNE,15,2.0,9.0,41,-99.99,,,-99.99,,2013-02-16 00:02:00,
2013-02-15 19:11:00,43.0,21.0,-100.00,West,280,2.0,6.0,40,-99.99,,,-99.99,,2013-02-16 00:11:00,
2013-02-15 19:22:00,43.0,21.0,-100.00,West,280,2.0,6.0,40,-99.99,,,-99.99,,2013-02-16 00:22:00,
2013-02-15 19:32:00,43.0,20.0,-100.00,WNW,295,1.0,4.0,39,-99.99,,,-99.99,,2013-02-16 00:32:00,
2013-02-15 19:42:00,43.0,19.0,-100.00,WNW,290,2.0,6.0,38,-99.99,,,-99.99,,2013-02-16 00:42:00,
2013-02-15 19:52:00,43.0,19.0,-100.00,WNW,290,2.0,6.0,38,-99.99,,,-99.99,,2013-02-16 00:52:00,
2013-02-15 20:11:00,42.0,19.0,-100.00,WNW,300,1.0,6.0,39,-99.99,,,-99.99,,2013-02-16 01:11:00,
2013-02-15 20:21:00,42.0,19.0,-100.00,WNW,300,1.0,6.0,39,-99.99,,,-99.99,,2013-02-16 01:21:00,
2013-02-15 20:32:00,42.0,19.0,-100.00,NW,315,3.0,9.0,39,-99.99,,,-99.99,,2013-02-16 01:32:00,
2013-02-15 20:42:00,42.0,19.0,-100.00,NNW,330,5.0,11.0,40,-99.99,,,-99.99,,2013-02-16 01:42:00,
2013-02-15 20:52:00,42.0,19.0,-100.00,NNW,330,5.0,11.0,40,-99.99,,,-99.99,,2013-02-16 01:52:00,
2013-02-15 21:01:00,41.0,19.0,-100.00,NW,305,3.0,10.0,40,-99.99,,,-99.99,,2013-02-16 02:01:00,
2013-02-15 21:11:00,41.0,19.0,-100.00,WNW,295,2.0,9.0,40,-99.99,,,-99.99,,2013-02-16 02:11:00,
2013-02-15 21:22:00,41.0,19.0,-100.00,WNW,295,2.0,9.0,40,-99.99,,,-99.99,,2013-02-16 02:22:00,
2013-02-15 21:32:00,41.0,19.0,-100.00,NW,310,3.0,9.0,41,-99.99,,,-99.99,,2013-02-16 02:32:00,
2013-02-15 21:42:00,41.0,19.0,-100.00,NW,315,4.0,8.0,41,-99.99,,,-99.99,,2013-02-16 02:42:00,
2013-02-15 21:52:00,41.0,19.0,-100.00,NW,315,4.0,8.0,41,-99.99,,,-99.99,,2013-02-16 02:52:00,
2013-02-15 22:02:00,40.0,20.0,-100.00,WNW,290,6.0,13.0,45,-99.99,,,-99.99,,2013-02-16 03:02:00,
2013-02-15 22:11:00,39.0,22.0,-100.00,West,280,5.0,14.0,51,-99.99,,,-99.99,,2013-02-16 03:11:00,
2013-02-15 22:21:00,39.0,22.0,-100.00,West,280,5.0,14.0,51,-99.99,,,-99.99,,2013-02-16 03:21:00,
2013-02-15 22:32:00,37.0,25.0,-100.00,NW,310,5.0,12.0,60,-99.99,,,-99.99,,2013-02-16 03:32:00,
2013-02-15 22:42:00,37.0,27.0,-100.00,WNW,295,6.0,13.0,68,-99.99,,,-99.99,,2013-02-16 03:42:00,
2013-02-15 22:52:00,37.0,27.0,-100.00,WNW,295,6.0,13.0,68,-99.99,,,-99.99,,2013-02-16 03:52:00,
2013-02-15 23:01:00,35.0,29.0,-100.00,West,275,4.0,11.0,76,-99.99,,,-99.99,,2013-02-16 04:01:00,
2013-02-15 23:11:00,34.0,29.0,-100.00,West,275,3.0,7.0,80,-99.99,,,-99.99,,2013-02-16 04:11:00,
2013-02-15 23:21:00,34.0,29.0,-100.00,West,275,3.0,7.0,80,-99.99,,,-99.99,,2013-02-16 04:21:00,
2013-02-15 23:32:00,34.0,29.0,-100.00,NW,320,2.0,4.0,82,-99.99,,,-99.99,,2013-02-16 04:32:00,
2013-02-15 23:42:00,33.0,29.0,-100.00,WNW,285,2.0,5.0,84,-99.99,,,-99.99,,2013-02-16 04:42:00,
2013-02-15 23:52:00,33.0,29.0,-100.00,WNW,285,2.0,5.0,84,-99.99,,,-99.99,,2013-02-16 04:52:00,